Location: Bennemühlen
(52.5740°N, 9.7135°E)
Time: 20:24:12
(UTC+00:00)

Cosmos 1707 - Pass Details

Date: 19 May 2025
Orbit: 422 x 430 km, 82.5° (Epoch: 20 June)

Event Time Altitude Azimuth Distance (km) Brightness Sun altitude
Exits shadow 22:52:35 50° 185° (S) 566 2.4 -17.2°
Maximum altitude 22:53:23 86° 98° (E) 443 2.2 -17.3°
Drops below altitude 10° 22:56:47 10° 12° (NNE) 1,556 6.3 -17.3°
Sets 22:58:51 0° 12° (NNE) 2,431 7.6 -17.3°
